Cloud_Cover
3 0 8 97 69 94 56 71 99 98 84 97 92 90 100 100 100 100 100 87 54 72 100 100 100 100 100 100 100 100 100 80 38 5 5 5 5 5 0 5 3 0 2
0 0 84 66 94 95 100 85 97 93 50 62 99 98 100 100 100 100 100 100 100 99 100 100 100 100 100 100 100 100 100 98 63 5 5 5 5 5 5 2 0 1 0
0 4 49 63 100 100 100 100 83 30 75 95 100 100 82 65 100 100 100 100 100 100 100 100 100 100 100 100 100 100 100 81 79 11 5 5 3 5 5 5 5 0 0
53 32 67 100 100 100 100 100 98 21 65 89 88 87 100 100 100 100 100 100 100 100 100 100 100 100 100 100 100 100 93 100 100 82 99 20 5 5 2 1 2 5 2
100 100 100 79 100 100 100 100 100 100 100 100 100 100 100 100 100 100 100 100 100 100 100 100 100 100 100 100 100 100 54 80 68 100 100 95 100 55 5 5 5 5 5
89 100 100 100 100 100 100 100 100 100 100 100 100 100 100 100 100 100 100 100 100 100 100 100 100 100 100 100 100 100 100 89 100 100 100 100 64 100 100 53 7 5 5
28 100 100 100 100 100 100 100 100 100 99 100 100 100 100 100 100 100 100 100 100 100 100 100 100 100 100 100 100 100 100 100 100 100 100 100 100 94 100 100 100 100 100
100 100 100 100 100 100 100 100 100 100 100 100 100 100 100 100 100 100 100 100 100 100 100 100 100 100 100 100 100 100 100 100 99 100 100 100 100 100 100 100 100 93 100
100 100 100 100 100 100 100 100 100 100 100 100 100 100 100 100 100 100 97 50 51 99 100 100 100 100 100 100 100 100 100 100 100 100 100 100 100 100 100 100 100 100 100
100 100 100 100 100 100 100 100 100 100 100 100 100 96 16 18 45 32 23 9 0 1 6 98 100 100 100 100 100 100 100 100 100 100 100 100 100 100 100 100 100 100 100
100 100 100 100 100 100 100 100 100 100 100 100 70 0 0 0 0 0 0 0 0 0 2 16 58 100 100 100 100 100 100 100 100 100 100 100 100 100 100 100 86 100 96
100 100 100 100 100 100 100 100 100 100 100 94 4 5 0 0 0 0 0 0 0 0 0 2 46 14 100 100 100 100 100 100 100 100 100 100 100 100 100 100 99 100 100
100 100 100 100 100 100 100 100 100 100 100 42 1 0 0 0 0 0 0 0 0 0 0 0 0 0 2 53 100 100 100 100 100 100 100 100 100 100 100 100 100 100 100
100 100 100 100 100 100 100 100 100 100 100 86 85 7 1 0 0 0 0 0 0 0 0 0 0 0 0 16 67 100 100 36 100 100 100 100 100 100 100 100 100 100 100
100 100 100 100 100 100 100 100 100 100 100 100 100 91 77 44 2 0 0 0 0 0 0 0 0 0 0 0 0 36 71 47 100 100 100 100 100 100 100 100 100 100 100
53 100 100 100 100 100 100 100 100 100 100 100 100 99 100 51 4 0 1 0 0 0 0 0 0 0 0 0 0 0 35 100 61 100 100 100 100 100 100 100 100 100 100
5 82 100 100 100 100 100 100 100 100 77 37 49 83 88 91 99 100 98 93 6 4 5 2 0 0 0 0 0 0 4 100 100 100 99 100 100 100 100 100 100 100 100
19 9 99 100 100 100 100 100 100 99 10 5 9 7 72 100 100 100 100 100 100 66 5 5 0 0 1 0 0 0 0 44 96 100 100 100 96 100 100 100 100 100 100
100 100 97 100 100 100 100 100 100 56 28 48 91 100 73 76 94 69 92 98 100 100 42 9 5 1 23 3 0 4 4 2 0 73 100 100 100 98 100 100 100 100 100
52 52 98 100 100 100 100 100 100 100 100 85 99 98 100 100 100 100 100 100 100 100 100 94 66 60 70 100 79 1 5 0 3 0 37 100 100 100 100 100 100 100 100
5 5 5 5 5 62 67 62 74 86 69 26 50 90 100 87 95 100 100 100 100 98 98 100 100 100 100 100 100 100 73 5 0 1 2 0 79 100 100 100 100 100 100
56 99 67 30 45 67 9 48 54 70 72 100 100 100 100 100 100 100 100 100 100 100 100 100 100 100 100 66 54 100 100 100 100 59 3 0 0 0 24 86 100 100 100
100 100 100 99 100 100 87 57 26 100 100 100 99 70 91 90 94 79 84 100 100 100 100 100 100 100 94 88 84 12 5 35 78 100 92 5 2 0 0 0 6 94 100
100 100 100 100 100 100 100 100 100 93 70 82 83 69 83 66 64 99 100 100 100 100 100 100 100 100 100 86 53 6 5 5 6 7 89 7 6 2 1 0 0 0 6
100 100 100 100 100 100 100 100 100 100 100 100 100 93 10 28 82 100 99 99 100 100 100 100 100 100 100 85 44 84 38 5 5 72 7 43 51 26 7 5 5 0 0
64 85 100 100 100 100 100 100 100 100 100 100 100 100 100 100 100 59 62 77 100 100 100 100 100 97 82 99 100 75 53 92 41 5 5 73 8 99 56 5 5 5 1